This is the latest recevied weather packets stored in our database for station/object W7TTE. If no packets are shown the sender has not sent any weather packets the latest 10 day(s).
| Time | Temp. | Humidity | Pressure | Rain* | Wind** | Luminosity | Snow |
|---|---|---|---|---|---|---|---|
| 1778201025 | 35.56° C | 12% | 1010.7 hPa | 0 mm | - | 101 W/m² | - |
| 1778200721 | 35.56° C | 12% | 1010.7 hPa | 0 mm | - | 113 W/m² | - |
| 1778200418 | 35.56° C | 12% | 1011 hPa | 0 mm | - | 138 W/m² | - |
| 1778200116 | 35.56° C | 12% | 1011 hPa | 0 mm | - | 150 W/m² | - |
| 1778199812 | 35.56° C | 12% | 1010.7 hPa | 0 mm | - | 167 W/m² | - |
| 1778199508 | 36.11° C | 12% | 1010.9 hPa | 0 mm | - | 181 W/m² | - |
| 1778199204 | 36.11° C | 12% | 1010.9 hPa | 0 mm | - | 195 W/m² | - |
| 1778198901 | 35.56° C | 12% | 1011 hPa | 0 mm | - | 209 W/m² | - |
| 1778198597 | 35.56° C | 12% | 1010.9 hPa | 0 mm | - | 223 W/m² | - |
| 1778198294 | 35.56° C | 12% | 1011 hPa | 0 mm | - | 238 W/m² | - |
| 1778197992 | 36.11° C | 12% | 1010.9 hPa | 0 mm | - | 253 W/m² | - |
| 1778197689 | 35.56° C | 12% | 1010.9 hPa | 0 mm | - | 268 W/m² | - |
| 1778197385 | 35.56° C | 12% | 1011.2 hPa | 0 mm | - | 283 W/m² | - |
| 1778197081 | 35.56° C | 12% | 1011.2 hPa | 0 mm | - | 299 W/m² | - |
| 1778196779 | 35.56° C | 12% | 1011 hPa | 0 mm | - | 313 W/m² | - |
| 1778196477 | 36.11° C | 12% | 1011 hPa | 0 mm | - | 329 W/m² | - |
| 1778196173 | 36.11° C | 12% | 1011.1 hPa | 0 mm | - | 348 W/m² | - |
| 1778195870 | 36.67° C | 12% | 1011.1 hPa | 0 mm | - | 364 W/m² | - |
| 1778195567 | 36.11° C | 12% | 1011 hPa | 0 mm | - | 378 W/m² | - |
| 1778195263 | 35.56° C | 12% | 1010.9 hPa | 0 mm | - | 395 W/m² | - |
| 1778194961 | 35.56° C | 12% | 1011.1 hPa | 0 mm | - | 412 W/m² | - |
| 1778194660 | 36.11° C | 12% | 1011.3 hPa | 0 mm | - | 428 W/m² | - |
| 1778194357 | 36.11° C | 12% | 1011.1 hPa | 0 mm | - | 443 W/m² | - |
| 1778194052 | 36.11° C | 12% | 1011.4 hPa | 0 mm | - | 460 W/m² | - |
| 1778193750 | 35.56° C | 12% | 1011.3 hPa | 0 mm | - | 474 W/m² | - |
* Rain latest hour (hover to see other rain measurements)
** Current wind speed in m/s (hover to see current wind gust speed)